This is the latest recevied weather packets stored in our database for station/object K7PMV-13. If no packets are shown the sender has not sent any weather packets the latest 10 day(s).
| Time | Temp. | Humidity | Pressure | Rain* | Wind** | Luminosity | Snow |
|---|---|---|---|---|---|---|---|
| 1777577413 | 32.78° C | 15% | 1004.2 hPa | 0 mm | - | 958 W/m² | - |
| 1777577110 | 32.78° C | 16% | 1004.2 hPa | 0 mm | - | 954 W/m² | - |
| 1777576808 | 32.22° C | 16% | 1004.3 hPa | 0 mm | - | 951 W/m² | - |
| 1777576505 | 31.11° C | 16% | 1004.3 hPa | 0 mm | - | 949 W/m² | - |
| 1777576202 | 31.11° C | 18% | 1004.5 hPa | 0 mm | - | 947 W/m² | - |
| 1777575899 | 31.11° C | 17% | 1004.6 hPa | 0 mm | - | 946 W/m² | - |
| 1777575597 | 31.11° C | 17% | 1004.6 hPa | 0 mm | - | 947 W/m² | - |
| 1777575287 | 30.56° C | 18% | 1004.5 hPa | 0 mm | - | 946 W/m² | - |
| 1777574978 | 30.56° C | 18% | 1004.7 hPa | 0 mm | - | 939 W/m² | - |
| 1777574675 | 30.56° C | 18% | 1004.7 hPa | 0 mm | - | 942 W/m² | - |
| 1777574373 | 31.11° C | 17% | 1004.9 hPa | 0 mm | - | 939 W/m² | - |
| 1777574071 | 31.11° C | 17% | 1004.9 hPa | 0 mm | - | 939 W/m² | - |
| 1777573768 | 31.11° C | 17% | 1005 hPa | 0 mm | - | 928 W/m² | - |
| 1777573465 | 31.11° C | 17% | 1005.2 hPa | 0 mm | - | 909 W/m² | - |
| 1777573162 | 30.56° C | 18% | 1005.3 hPa | 0 mm | - | 858 W/m² | - |
| 1777572853 | 30.56° C | 18% | 1005.5 hPa | 0 mm | - | 798 W/m² | - |
| 1777572550 | 30° C | 18% | 1005.5 hPa | 0 mm | - | 738 W/m² | - |
| 1777572248 | 30° C | 19% | 1005.6 hPa | 0 mm | - | 701 W/m² | - |
| 1777571945 | 29.44° C | 20% | 1005.6 hPa | 0 mm | - | 422 W/m² | - |
| 1777571642 | 28.89° C | 22% | 1005.7 hPa | 0 mm | - | 610 W/m² | - |
| 1777571340 | 29.44° C | 20% | 1005.9 hPa | 0 mm | - | 749 W/m² | - |
| 1777571030 | 29.44° C | 20% | 1005.9 hPa | 0 mm | - | 782 W/m² | - |
| 1777570728 | 28.89° C | 20% | 1006 hPa | 0 mm | - | 798 W/m² | - |
| 1777570425 | 28.89° C | 21% | 1006 hPa | 0 mm | - | 816 W/m² | - |
| 1777570123 | 28.89° C | 19% | 1006.1 hPa | 0 mm | - | 833 W/m² | - |
* Rain latest hour (hover to see other rain measurements)
** Current wind speed in m/s (hover to see current wind gust speed)